Volver al catálogo

STARLINK-4081

ActivoComunicacionesVLEO
NORAD 52660·PAYLOAD·🇺🇸 United States

Lanzado May 18, 2022 desde Cape Canaveral Space Force Station

Loading…

Próximos Pases (próximas 24 horas)

TLE

ActualizadoSource: CelesTrak SupGP

Época: Sep 14, 2026, 21:29 UTC

1 52660C 22053E   26257.89562500 -.00018027  00000+0 -57965-3 0  2579
2 52660  53.1605  11.8975 0001238  72.5164 227.4410 15.31714027    13

Sigue STARLINK-4081 en tiempo real con AllMySat

Download on the App Store